Regional Weather Roundup
Issued by NWS State College, PA

Home | Current Version | Previous Version | Text Only | Print | Product List | Glossary Off
Versions: 1 2 3 4 5 6 7 8 9 10 11 12 13 14 15 16 17 18 19 20 21 22 23 24 25 26 27 28 29 30 31 32 33 34 35 36 37 38 39 40 41 42 43 44 45 46 47 48 49 50

000
ASUS41 KCTP 191310
RWRCTP

REGIONAL WEATHER ROUNDUP
NATIONAL WEATHER SERVICE STATE COLLEGE PA
900 AM EDT SAT AUG 19 2017

Note: "fair" indicates few or no clouds below 12,000 feet with no
significant weather and/or obstructions to visibility.

* = STATION THAT DOES NOT REPORT PRECIPITATION /E.G. RAIN...SNOW...ETC/
    THUNDER OR FOG.

PAZ002>004-007>009-013>016-020>023-029>032-191400-
WESTERN PENNSYLVANIA

CITY           SKY/WX    TMP DP  RH WIND       PRES   REMARKS
ERIE           PTSUNNY   69  63  81 SW7       29.89R
MEADVILLE      MOSUNNY   66  64  93 SW7       29.94R
FRANKLIN*      MOSUNNY   66  61  82 SW7       29.95R
NEW CASTLE     PTSUNNY   68  64  87 SW6       29.95R
BEAVER COUNTY  NOT AVBL
BUTLER*        CLOUDY    68  64  88 SW7       29.96R
PITTSBURGH INT CLOUDY    71  66  84 W6        29.94S
PITTSBURGH     CLOUDY    71  63  75 SW7       29.95R
INDIANA*       PTSUNNY   68  66  94 SW7       29.98S
LATROBE        MOSUNNY   68  66  94 SW9       29.97R
WASHINGTON CO* CLOUDY    70  64  83 SW6       29.96S
$$

PAZ004>006-010>012-017>019-024>028-033>037-041-042-045-046-049>053-191400-
CENTRAL PENNSYLVANIA

CITY           SKY/WX    TMP DP  RH WIND       PRES   REMARKS
BRADFORD       CLOUDY    64  62  93 W10G17    29.94R
DUBOIS         SUNNY     67  61  81 SW9       29.94R
CLEARFIELD     MOSUNNY   66  64  93 S10       29.94S
JOHNSTOWN      SUNNY     68  63  84 W9        29.98R
ALTOONA        MOSUNNY   70  66  87 SW5       29.96R
STATE COLLEGE  SUNNY     70  66  88 SW5       29.93S
WILLIAMSPORT   MOSUNNY   72  67  84 W6        29.88S
SELINSGROVE    SUNNY     73  68  84 CALM      29.90S
FT INDIANTOWN  SUNNY     76  65  69 W7        29.89R
CAPITAL CITY   SUNNY     76  66  71 VRB3      29.89S
HARRISBURG     MOSUNNY   75  68  78 NW8       29.88S
YORK           SUNNY     75  68  78 W6        29.90R
$$

PAZ038>040-043-044-047-048-054-055-060>062-067>071-191400-
EASTERN PENNSYLVANIA

CITY           SKY/WX    TMP DP  RH WIND       PRES   REMARKS
SCRANTON       SUNNY     74  65  73 W7        29.89S
MOUNT POCONO   SUNNY     69  64  84 NW8       29.92S
ALLENTOWN      SUNNY     76  67  73 MISG      29.87R
QUAKERTOWN*    SUNNY     75  68  78 CALM      29.89R
READING        SUNNY     77  70  79 W6        29.87R
LANCASTER      SUNNY     76  70  82 W5        29.89R
COATESVILLE    SUNNY     75  70  83 W5        29.92R
POTTSTOWN      SUNNY     75  71  87 VRB3      29.90R
BLUE BELL      SUNNY     75  68  78 NW6       29.89R
DOYLESTOWN     SUNNY     78  69  73 VRB6      29.87R
WILLOW GROVE   NOT AVBL
NORTH PHILA    MOSUNNY   81  71  71 NW6       29.88R
PHILADELPHIA   MOSUNNY   79  68  69 NW10      29.87R
$$




USA.gov is the U.S. government's official web portal to all federal, state and local government web resources and services.